{"data":{"norad_id":62378,"intl_designator":"2024-247B","name":"TANSTAAFL-2","alt_names":[],"object_type":"PAYLOAD","status":"ACTIVE","operator":null,"country":"US","launch_date":"2024-12-21","launch_site_code":"AFWTR","launch_vehicle":null,"mission":null,"orbit_class":"UNKNOWN","rcs_meters":null,"size_class":null,"mass_kg":null,"dimensions":null,"purposes":[],"wikipedia_slug":null,"has_3d_model":false,"image_url":null,"decayed_at":null,"tle_current":{"epoch":"2026-05-24T23:12:51.028128Z","epoch_age_seconds":81047,"freshness":"FRESH","line1":"1 62378U 24247B   26144.96725727  .00007829  00000+0  28002-3 0  9997","line2":"2 62378  44.9877  59.7520 0000709 150.0048 210.0876 15.29341753 79403","mean_motion":15.29341753,"eccentricity":7.09e-5,"inclination_deg":44.9877,"raan_deg":59.752,"arg_perigee_deg":150.0048,"mean_anomaly_deg":210.0876,"bstar":0.00028002,"rev_number":7940,"period_min":94.158156420908,"perigee_km":477.29275415521,"apogee_km":478.26492302113,"semimajor_km":6855.9158385882,"source":"CELESTRAK","updated_at":"2026-05-25T13:38:02.943635Z"}}}